Regional Weather Roundup
Issued by NWS

Home | Current Version | Previous Version | Graphics & Text | Print | Product List | Glossary Off
Versions: 1 2 3 4 5 6 7 8 9 10 11 12 13 14 15 16 17 18 19 20 21 22 23 24 25 26 27 28 29 30 31 32 33 34 35 36 37 38 39 40 41 42 43 44 45 46 47 48 49 50

000
ASUS43 KLSX 022007
RWRMO

WEATHER SUMMARY FOR MISSOURI
NATIONAL WEATHER SERVICE SPRINGFIELD MO
300 PM CDT WED SEP 02 2015

NOTE: "FAIR" INDICATES FEW OR NO CLOUDS BELOW 12,000 FEET WITH NO
       SIGNIFICANT WEATHER AND/OR OBSTRUCTIONS TO VISIBILITY.
       CURRENT SKY AND/OR WEATHER CONDITIONS ARE NOT AVAILABLE FOR
       CHILLICOTHE AND FARMINGTON.

MOZ001>031-035>038-043-044-053-054-022100-
...NORTHERN AND WESTERN MISSOURI...

CITY           SKY/WX    TMP DP  RH WIND       PRES   REMARKS
KANSAS CTY INT MOSUNNY   89  70  53 S17       29.97F HX  94
KANSAS C DTWN  MOSUNNY   90  71  53 S15G22    29.96F HX  96
LEE`S SUMMIT   MOSUNNY   88  67  49 S14G23    29.99F HX  91
ST JOSEPH      SUNNY     85  72  65 S16G22    29.94F HX  91
CHILLICOTHE      N/A     84  71  65 S14       29.97F
KIRKSVILLE     MOSUNNY   85  67  54 S13G18    29.99F

$$
MOZ066>068-077>081-088>096-101>105-022100-
...SOUTHWEST MISSOURI...

CITY           SKY/WX    TMP DP  RH WIND       PRES   REMARKS
SPRINGFIELD    MOSUNNY   88  66  48 S10       30.05F HX  90
JOPLIN         MOSUNNY   86  70  58 S9        30.04F HX  90

$$
MOZ032>034-039>042-045>050-055>058-069>072-022100-
...CENTRAL MISSOURI...

CITY           SKY/WX    TMP DP  RH WIND       PRES   REMARKS
COLUMBIA       CLOUDY    86  71  60 S8        30.01F HX  91
JEFFERSON CITY CLOUDY    88  65  46 S8        30.00F HX  90
ROLLA          PTSUNNY   88  64  44 S8        30.04F
SEDALIA        MOSUNNY   92  67  43 S16       30.01F HX  95
WHITEMAN AFB   MOSUNNY   90  69  49 SW13      29.98F HX  94
WARRENSBURG    MOSUNNY   88  66  48 S12       29.99F HX  90
OSAGE BEACH    CLOUDY    90  66  45 S7        30.04F HX  92

$$
MOZ051-052-059>065-022100-
...EAST CENTRAL MISSOURI...

CITY           SKY/WX    TMP DP  RH WIND       PRES   REMARKS
ST LOUIS INTL  PTSUNNY   93  63  36 S10G18    30.02F HX  94
SPIRIT OF STL  MOSUNNY   91  68  46 SW8       30.00F HX  95
ST CHARLES     MOSUNNY   92  67  43 SW9       30.00F HX  95

$$
MOZ072>076-082>087-097>100-106>115-022100-
...SOUTH CENTRAL AND SOUTHEAST MISSOURI...

CITY           SKY/WX    TMP DP  RH WIND       PRES   REMARKS
CAPE GIRARDEAU SUNNY     91  66  43 W5        30.04F HX  93
FARMINGTON     SUNNY     90  70  51 SW7       30.08F HX  95
POPLAR BLUFF   SUNNY     89  69  51 S5        30.04F HX  93
WEST PLAINS    SUNNY     88  63  43 W7        30.09F

$$


USA.gov is the U.S. government's official web portal to all federal, state and local government web resources and services.